Showing default

GLOBALSTAR M084, 38040

Orbit data source: Space-Track

GLOBALSTAR M084, 38040 is a payload satellite owned by Globalstar (US) in LEO that was launched on Wed, 28 Dec 2011 UTC via a SOYUZ-2-1A launch vehicle from the Tyuratam Missile And Space Complex (TTMTR). Payload-class satellites include a variety of spacecraft equipped with specific instruments for various scientific and technological missions. These include communications satellites like Starlink; space stations such as the ISS; scientific satellites like the Hubble; Earth observation satellites from companies like Planet Labs, Umbra, and HawkEye 360; GPS; miniature CubeSats for education and research; and military/defense satellites.

Loading next visibility...
Identifier
38040, 2011-080A
Orbit
LEO
Country
Flag of USUS / GLOB
Related business
Manufacturer
Thales Alenia
Mission
Operational Commercial Communications
Bus & Motor
PRISMA?, LS-400 AOCS?
Mass
715 kg wet, ~500 kg dry
Launch date (UTC)
2011-12-28 (14 years ago)
Launch vehicle
SOYUZ-2-1A
Launch site
Tyuratam Missile And Space Complex (TTMTR)
Object type
Payload
Rocket body
Debris
Shape & HBR
Trap Cyl + 2 Pan, 6.0 m
Radar Cross Section
20.931 m², Large (>1 m²)

Expand to show TLE details & history
Last TLE update: 17 hours ago

TLE from 17 hours ago
0 GLOBALSTAR M084
1 38040U 11080A   26119.50963834 -.00000071  00000-0  18428-3 0  9997
2 38040  51.9989 165.4748 0000219  49.4558  97.1008 12.62266752662615
Epoch: 2026-04-29T12:13Z
TLE epoch observation values (Epoch: 2026-04-29T12:13:52.752Z)
Latitude
25.80429°
Longitude
-77.54512°
Altitude
1,414.563 km
Speed
7.156 km/s
True Right ascension
21h 33m 34s
True Declination
25° 40' 52"
Sunlit
Object was in daylight at epoch
Visualization orbit readout
Latitude
Unknown
Longitude
Unknown
Altitude
Unknown
Speed
Unknown
Apparent Right ascension
Unknown
Apparent Declination
Unknown
Sunlit
N/A
Visualization observer readout
Local Sidereal Time
12:35:22
Azimuth
Unknown
Elevation
Unknown
Doppler factor
Unknown
Orbital elements
Apogee altitude
1,414.165 km
Perigee altitude
1,413.824 km
Semi-major axis
7,792.132 km
Eccentricity
0.00002
Inclination
51.9989°
RAAN
165.4748°
Arg. of periapsis
49.4558°
True anomaly
97.10329°
Mean anomaly
97.1008°
Eccentric anomaly
97.10205°
Mean motion
3.15543 °/min
Orbital period
114.09 mins
BSTAR
0.00018428
Loading maneuver chart data...
Computing Atmospheric mass density...
Loading historical data...
Loading historical data...
Loading historical data...
Loading historical data...
Loading historical data...
Loading historical data...
Loading historical data...

Documentation

Showing up to 5 results
|